CW5212 Weather Reports


Display with metric or nautical units.
time (UTC)temp
F
wind
direction
speed
MPH
gust
MPH
rain 1hr
in
rain 24hr
in
rain mn
in
humidity
%
barometer
mb
20260901221545 70 146 7.0 16.0 0.00 0.00 0.00 43 941.4
20260901220042 71 189 5.0 12.0 0.00 0.00 0.00 45 941.4
20260901214517 71 144 9.0 14.0 0.00 0.00 0.00 43 941.8
20260901213059 69 156 7.0 19.0 0.00 0.00 0.00 48 941.8
20260901211539 69 150 7.0 16.0 0.00 0.00 0.00 50 941.8
20260901210027 69 112 9.0 16.0 0.00 0.00 0.00 48 941.9
20260901204515 70 183 9.0 17.0 0.00 0.00 0.00 47 942.0
20260901203107 71 118 11.0 18.0 0.00 0.00 0.00 45 941.9
20260901201532 69 154 9.0 16.0 0.00 0.00 0.00 49 942.0
20260901200021 69 143 8.0 17.0 0.00 0.00 0.00 49 942.3
20260901194603 69 120 11.0 19.0 0.00 0.00 0.00 50 942.5
20260901193035 67 84 10.0 21.0 0.00 0.00 0.00 54 942.8
20260901191516 65 88 11.0 20.0 0.00 0.00 0.00 59 943.0
20260901190110 66 107 12.0 21.0 0.00 0.00 0.00 58 943.2
20260901184532 65 115 13.0 19.0 0.00 0.00 0.00 60 943.3
20260901183018 66 120 12.0 19.0 0.00 0.00 0.00 60 943.4
20260901181641 64 106 13.0 18.0 0.00 0.00 0.00 61 943.5
20260901180053 64 89 12.0 21.0 0.00 0.00 0.00 64 943.6
20260901174547 62 90 12.0 22.0 0.00 0.00 0.00 67 943.5
20260901173039 62 137 10.0 16.0 0.00 0.00 0.00 67 943.4
20260901171544 62 130 9.0 18.0 0.00 0.00 0.00 66 943.5
20260901170035 62 118 9.0 20.0 0.00 0.00 0.00 69 943.5
20260901164525 61 115 11.0 17.0 0.00 0.00 0.00 70 943.4
20260901163024 59 95 13.0 23.0 0.00 0.00 0.00 73 943.4
20260901161512 59 119 12.0 21.0 0.00 0.00 0.00 76 943.3
20260901160100 58 128 13.0 18.0 0.00 0.00 0.00 76 943.2
20260901160002 58 124 12.0 19.0 0.00 0.00 0.00 78 943.2
20260901154554 57 101 11.0 17.0 0.00 0.00 0.00 80 943.2
20260901153055 57 100 11.0 17.0 0.00 0.00 0.00 81 943.3
20260901151556 56 86 9.0 18.0 0.00 0.00 0.00 85 943.3
20260901150113 55 88 11.0 18.0 0.00 0.00 0.00 89 943.2
20260901150025 55 126 11.0 18.0 0.00 0.00 0.00 89 943.2
20260901144510 54 109 11.0 17.0 0.00 0.00 0.00 90 943.3
20260901143014 54 90 11.0 17.0 0.00 0.00 0.00 92 943.1
20260901141516 53 90 11.0 16.0 0.00 0.00 0.00 93 943.2
20260901140023 53 99 11.0 16.0 0.00 0.00 0.00 94 943.1
20260901134527 52 109 10.0 15.0 0.00 0.00 0.00 95 943.1
20260901133032 52 99 9.0 12.0 0.00 0.00 0.00 97 943.1
20260901131531 52 100 8.0 12.0 0.00 0.00 0.00 98 943.1
20260901130013 52 96 8.0 11.0 0.00 0.00 0.00 100 943.0
20260901124551 52 92 5.0 8.0 0.00 0.00 0.00 100 943.2
20260901123028 52 63 3.0 6.0 0.00 0.00 0.00 100 943.3
20260901121506 52 67 4.0 8.0 0.00 0.00 0.00 100 943.2
20260901120053 52 69 5.0 8.0 0.00 0.00 0.00 99 943.1
20260901114520 52 68 4.0 7.0 0.00 0.00 0.00 97 943.2
20260901113101 52 80 3.0 6.0 0.00 0.00 0.00 97 943.3
20260901113001 52 70 2.0 5.0 0.00 0.00 0.00 96 943.3
20260901111535 52 89 5.0 8.0 0.00 0.00 0.00 96 943.2
20260901110015 53 86 6.0 10.0 0.00 0.00 0.00 94 943.1
20260901104552 53 95 5.0 7.0 0.00 0.00 0.00 92 943.3
20260901103028 52 90 4.0 8.0 0.00 0.00 0.00 95 943.3
20260901101518 52 79 7.0 9.0 0.00 0.00 0.00 94 943.2
20260901100043 53 82 6.0 9.0 0.00 0.00 0.00 93 943.0
20260901094523 53 47 3.0 4.0 0.00 0.00 0.00 94 942.9
20260901093056 53 27 1.0 3.0 0.00 0.00 0.00 91 942.9
20260901091543 54 27 2.0 3.0 0.00 0.00 0.00 83 943.1
20260901090018 55 27 1.0 3.0 0.00 0.00 0.00 81 943.1
20260901084548 55 27 0.0 1.0 0.00 0.00 0.00 81 943.1
20260901083025 54 27 0.0 2.0 0.00 0.00 0.00 86 943.0
20260901081505 54 27 1.0 4.0 0.00 0.00 0.00 89 943.1
20260901080043 53 27 2.0 4.0 0.00 0.00 0.00 91 943.2
20260901074518 54 355 3.0 5.0 0.00 0.00 0.00 88 943.3
20260901073056 54 342 1.0 6.0 0.00 0.00 0.00 88 943.6
20260901071535 55 110 5.0 11.0 0.00 0.00 0.00 82 943.7
20260901070012 56 108 8.0 15.0 0.00 0.00 0.00 80 943.6
20260901064547 55 153 10.0 18.0 0.00 0.00 0.00 82 943.6
20260901063030 56 146 9.0 17.0 0.00 0.00 0.00 78 943.4
20260901061603 57 139 12.0 18.0 0.00 0.00 0.00 77 943.2
20260901061507 57 111 12.0 18.0 0.00 0.00 0.00 76 943.2
20260901060040 57 124 12.0 18.0 0.00 0.00 0.00 74 943.0
20260901054517 57 144 9.0 14.0 0.00 0.00 0.00 74 942.9
20260901053055 57 132 9.0 15.0 0.00 0.00 0.00 73 943.2
20260901051531 57 171 9.0 16.0 0.00 0.00 0.00 73 943.4
20260901050008 57 127 9.0 16.0 0.00 0.00 0.00 76 943.6
20260901044546 57 131 12.0 21.0 0.00 0.00 0.00 74 943.7
20260901043027 56 119 13.0 20.0 0.00 0.00 0.00 79 943.4
20260901041559 56 118 15.0 22.0 0.00 0.00 0.00 80 943.4
20260901041502 56 103 16.0 22.0 0.00 0.00 0.00 81 943.5
20260901040035 59 113 13.0 23.0 0.00 0.00 0.00 72 943.5
20260901034515 58 84 11.0 16.0 0.00 0.00 0.00 78 943.9
20260901033108 61 117 11.0 29.0 0.00 0.00 0.00 70 943.4
20260901031548 67 176 15.0 25.0 0.00 0.00 0.00 47 943.1
20260901030009 68 123 7.0 13.0 0.00 0.00 0.00 40 942.3
20260901024544 69 121 6.0 11.0 0.00 0.00 0.00 38 942.1
20260901023028 68 127 6.0 10.0 0.00 0.00 0.00 35 942.1
20260901021559 68 94 4.0 10.0 0.00 0.00 0.00 35 942.2
20260901020039 68 110 5.0 9.0 0.00 0.00 0.00 36 942.1
20260901014522 69 102 4.0 11.0 0.00 0.00 0.00 35 942.3
20260901013021 68 82 8.0 13.0 0.00 0.00 0.00 35 942.2
20260901011554 68 86 6.0 13.0 0.00 0.00 0.00 38 942.4
20260901010049 68 80 9.0 17.0 0.00 0.00 0.00 38 942.3
20260901004539 70 92 8.0 17.0 0.00 0.00 0.00 36 942.3
20260901003029 71 136 11.0 20.0 0.00 0.00 0.00 33 942.6
20260901001533 75 94 4.0 6.0 0.00 0.00 0.00 23 942.6
20260901000031 76 55 0.0 4.0 0.00 0.00 0.00 24 942.5
20260831234526 76 5 0.0 3.0 0.00 0.00 0.00 23 942.3
20260831233027 76 277 0.0 5.0 0.00 0.00 0.00 21 942.3
20260831231515 77 319 2.0 8.0 0.00 0.00 0.00 21 942.2
20260831230013 78 341 3.0 11.0 0.00 0.00 0.00 20 942.3
20260831224517 77 309 3.0 16.0 0.00 0.00 0.00 20 942.4
20260831223015 78 253 8.0 13.0 0.00 0.00 0.00 20 942.4